Homer, AK

3:37 PM AKDT on July 27, 2017 (GMT -0800)
Homer

Weather History for PAHO - February, 2014

Change the Weather History Date:

Friday, February 28, 2014

  Actual Average Record
Temperature  
Mean Temperature 35 °F -  
Max Temperature 42 °F 33 °F 46 °F (1991)
Min Temperature 28 °F 18 °F -11 °F (1956)
Degree Days  
Heating Degree Days 30    
Moisture  
Dew Point 29 °F    
Average Humidity 78    
Maximum Humidity 89    
Minimum Humidity 67    
Precipitation  
Precipitation 0.00 in - - ()
Sea Level Pressure  
Sea Level Pressure 30.06 in    
Wind  
Wind Speed 4 mph (ENE)    
Max Wind Speed 13 mph    
Max Gust Speed -    
Visibility 10 miles    
Events      
Averages and records for this station are not official NWS values.
T = Trace of Precipitation, MM = Missing Value Source: NWS Daily Summary

Daily Weather History Graph

Daily Weather History Graph

Search for Another Location

Airport or City:

Trip Planner

Search our weather history database for the weather conditions in past years. The results will help you decide how hot, cold, wet, or windy it might be!

Date:

Astronomy

Feb. 28, 2014 Rise Set
Actual Time 8:05 AM AKST 6:32 PM AKST
Civil Twilight 7:24 AM AKST 7:13 PM AKST
Nautical Twilight 6:36 AM AKST 8:01 PM AKST
Astronomical Twilight 5:48 AM AKST 8:49 PM AKST
Moon 7:27 AM AKST (2/28) 6:27 PM AKST (2/28)
Length of Visible Light 11h 49m
Length of Day
10h 26m
Waning Crescent, 0% of the Moon is Illuminated
Feb 28
Waning Crescent
Feb 28
New
Mar 8
First Quarter
Mar 16
Full
Mar 23
Last Quarter

Hourly Weather History & Observations

Time (AKST) Temp. Windchill Dew Point Humidity Pressure Visibility Wind Dir Wind Speed Gust Speed Precip Events Conditions
12:53 AM 32.0 °F - 27.0 °F 82% 29.99 in 10.0 mi Calm Calm - N/A   Clear
1:53 AM 30.9 °F - 27.0 °F 85% 30.02 in 10.0 mi Calm Calm - N/A   Clear
3:53 AM 28.9 °F - 26.1 °F 89% 30.05 in 10.0 mi Calm Calm - N/A   Clear
4:53 AM 28.9 °F - 26.1 °F 89% 30.06 in 8.0 mi Calm Calm - N/A   Clear
5:53 AM 30.0 °F - 26.1 °F 85% 30.07 in 10.0 mi Calm Calm - N/A   Clear
6:53 AM 28.9 °F - 25.0 °F 85% 30.09 in 10.0 mi Calm Calm - N/A   Partly Cloudy
7:53 AM 28.9 °F 25.2 °F 26.1 °F 89% 30.11 in 10.0 mi East 3.5 mph - N/A   Mostly Cloudy
8:53 AM 34.0 °F 27.2 °F 30.0 °F 85% 30.12 in 10.0 mi NE 8.1 mph - N/A   Overcast
9:53 AM 35.1 °F 27.9 °F 30.0 °F 82% 30.11 in 10.0 mi ENE 9.2 mph - N/A   Mostly Cloudy
10:12 AM 35.6 °F 28.0 °F 30.2 °F 81% 30.10 in 10.0 mi ENE 10.4 mph - N/A   Scattered Clouds
10:43 AM 37.4 °F 29.3 °F 32.0 °F 81% 30.10 in 10.0 mi ENE 12.7 mph - N/A   Mostly Cloudy
10:53 AM 37.0 °F 30.4 °F 30.9 °F 79% 30.10 in 10.0 mi ENE 9.2 mph - N/A   Overcast
11:53 AM 41.0 °F 35.8 °F 32.0 °F 70% 30.10 in 10.0 mi ENE 8.1 mph - N/A   Overcast
12:15 PM 39.2 °F 33.0 °F 30.2 °F 70% 30.10 in 10.0 mi East 9.2 mph - N/A   Scattered Clouds
12:53 PM 39.9 °F 32.9 °F 32.0 °F 73% 30.09 in 10.0 mi East 11.5 mph - N/A   Clear
1:53 PM 41.0 °F 34.7 °F 32.0 °F 70% 30.08 in 10.0 mi East 10.4 mph - N/A   Clear
2:53 PM 41.0 °F 35.8 °F 32.0 °F 70% 30.07 in 10.0 mi ENE 8.1 mph - N/A   Mostly Cloudy
3:53 PM 42.1 °F 37.7 °F 32.0 °F 67% 30.06 in 10.0 mi ENE 6.9 mph - N/A   Mostly Cloudy
4:53 PM 41.0 °F 36.4 °F 32.0 °F 70% 30.04 in 10.0 mi ENE 6.9 mph - N/A   Clear
5:53 PM 39.9 °F 35.1 °F 30.9 °F 70% 30.03 in 10.0 mi ENE 6.9 mph - N/A   Clear
6:53 PM 39.0 °F 34.8 °F 30.9 °F 73% 30.02 in 10.0 mi East 5.8 mph - N/A   Mostly Cloudy
7:53 PM 37.0 °F 34.5 °F 28.9 °F 73% 30.02 in 10.0 mi NNE 3.5 mph - N/A   Mostly Cloudy
8:53 PM 33.1 °F - 27.0 °F 78% 30.01 in 10.0 mi Calm Calm - N/A   Clear
9:53 PM 32.0 °F 27.5 °F 27.0 °F 82% 30.01 in 10.0 mi North 4.6 mph - N/A   Clear
10:53 PM 34.0 °F 28.0 °F 28.0 °F 79% 30.00 in 10.0 mi NNE 6.9 mph - N/A   Clear
11:53 PM 30.9 °F 27.5 °F 25.0 °F 79% 29.99 in 10.0 mi NNE 3.5 mph - N/A   Clear